Location: Nakusp
(50.2330°N, 117.8000°W)
Time: 10:26:52
(UTC-07:00)

Cosmos 1939 Rocket - Visible Passes

Search period start: 22 July 2014 00:00
Search period end: 01 August 2014 00:00
Orbit: 545 x 591 km, 97.7° (Epoch: 22 July)

Date Brightness Start Highest point End Pass type
(mag) Time Alt. Az. Time Alt. Az. Time Alt. Az.
22 Jul 5.8 22:56:50 10° W 22:57:30 10° W 22:58:11 10° WNW visible
23 Jul 5.9 22:58:34 10° W 22:58:48 10° W 22:59:01 10° W visible
24 Jul 2.9 21:20:20 10° SSE 21:24:19 88° WSW 21:28:23 10° NNW visible
25 Jul 2.9 21:21:35 10° SSE 21:25:35 86° WSW 21:29:40 10° NNW visible
26 Jul 3.0 21:22:51 10° SSE 21:26:51 83° WSW 21:30:56 10° NNW visible
27 Jul 3.0 21:24:06 10° SSE 21:28:07 81° WSW 21:32:12 10° NNW visible
28 Jul 3.0 21:25:22 10° S 21:29:22 78° WSW 21:33:29 10° NNW visible
29 Jul 3.1 21:26:37 10° S 21:30:38 76° WSW 21:34:45 10° NNW visible
30 Jul 3.1 21:27:53 10° S 21:31:54 74° WSW 21:36:00 10° NNW visible
31 Jul 3.1 21:29:08 10° S 21:33:09 72° WSW 21:37:16 10° NNW visible
